When you browse on this site, cookies collect data to enhance your experience and personalize the content and advertising you see.
Visit our Privacy Policy to learn more. By continuing to use the site, you agree to this use of cookies and data.
  • In Slovakia
  • List of Countries
  • For 7 days
  • Water Temperature
  • Satellite Maps
  • Weather Map
  • Weather Widgets
  • user-avatar
    Login

    Hourly Weather Abovyan

    Today, 25 June, Tuesday

    Time Temperature Precipitation Wind Pressure Humidity
    00:00 +23°C° 0.1 mm 2 mps 673 mmHg 63%
    01:00 +23°C° 0 mm 2 mps 673 mmHg 63%
    02:00 +23°C° 0 mm 2 mps 672 mmHg 64%
    03:00 +21°C° 0 mm 2 mps 672 mmHg 64%
    04:00 +23°C° 0 mm 2 mps 673 mmHg 63%
    05:00 +24°C° 0 mm 2 mps 673 mmHg 62%
    06:00 +24°C° 0 mm 1 mps 673 mmHg 61%
    07:00 +26°C° 0 mm 1 mps 673 mmHg 56%
    08:00 +28°C° 0 mm 1 mps 674 mmHg 51%
    09:00 +30°C° 0 mm 1 mps 674 mmHg 46%
    10:00 +31°C° 0 mm 1 mps 674 mmHg 42%
    11:00 +32°C° 0 mm 1 mps 674 mmHg 38%
    12:00 +34°C° 0 mm 1 mps 674 mmHg 35%
    13:00 +34°C° 0.1 mm 1 mps 674 mmHg 33%
    14:00 +35°C° 0.1 mm 1 mps 674 mmHg 32%
    15:00 +35°C° 0.1 mm 1 mps 674 mmHg 31%
    16:00 +35°C° 0.1 mm 2 mps 674 mmHg 34%
    17:00 +34°C° 0.1 mm 3 mps 673 mmHg 37%
    18:00 +34°C° 0.1 mm 4 mps 673 mmHg 41%
    19:00 +32°C° 0.1 mm 4 mps 673 mmHg 44%
    20:00 +29°C° 0.1 mm 4 mps 673 mmHg 48%
    21:00 +27°C° 0.1 mm 3 mps 673 mmHg 52%
    22:00 +26°C° 0 mm 3 mps 673 mmHg 53%
    23:00 +25°C° 0 mm 2 mps 673 mmHg 55%

    Tomorrow, 26 June, Wednesday

    Time Temperature Precipitation Wind Pressure Humidity
    00:00 +24°C° 0 mm 2 mps 673 mmHg 57%
    01:00 +24°C° 0 mm 2 mps 673 mmHg 58%
    02:00 +23°C° 0 mm 2 mps 673 mmHg 59%
    03:00 +23°C° 0 mm 2 mps 673 mmHg 60%
    04:00 +24°C° 0 mm 2 mps 673 mmHg 59%
    05:00 +24°C° 0 mm 2 mps 673 mmHg 58%
    06:00 +25°C° 0 mm 1 mps 673 mmHg 57%
    07:00 +27°C° 0 mm 1 mps 674 mmHg 52%
    08:00 +28°C° 0 mm 1 mps 674 mmHg 47%
    09:00 +30°C° 0 mm 1 mps 674 mmHg 42%
    10:00 +31°C° 0.1 mm 1 mps 674 mmHg 40%
    11:00 +32°C° 0.1 mm 1 mps 674 mmHg 37%
    12:00 +34°C° 0.1 mm 1 mps 674 mmHg 35%
    13:00 +34°C° 0.1 mm 1 mps 674 mmHg 33%
    14:00 +36°C° 0.1 mm 2 mps 673 mmHg 32%
    15:00 +36°C° 0.1 mm 2 mps 673 mmHg 30%
    16:00 +35°C° 0.2 mm 3 mps 673 mmHg 35%
    17:00 +34°C° 0.2 mm 3 mps 672 mmHg 39%
    18:00 +33°C° 0.2 mm 4 mps 672 mmHg 44%
    19:00 +29°C° 0.3 mm 4 mps 672 mmHg 49%
    20:00 +27°C° 0.3 mm 3 mps 672 mmHg 55%
    21:00 +25°C° 0.3 mm 3 mps 672 mmHg 60%
    22:00 +24°C° 0.3 mm 2 mps 672 mmHg 62%
    23:00 +24°C° 0.3 mm 2 mps 671 mmHg 64%

    Day after tomorrow, 27 June, Thursday

    Time Temperature Precipitation Wind Pressure Humidity
    00:00 +23°C° 0.3 mm 1 mps 671 mmHg 66%
    01:00 +23°C° 0.3 mm 1 mps 671 mmHg 68%
    02:00 +22°C° 0.3 mm 1 mps 671 mmHg 69%
    03:00 +22°C° 0.3 mm 1 mps 671 mmHg 71%
    04:00 +22°C° 0.3 mm 1 mps 671 mmHg 70%
    05:00 +23°C° 0.3 mm 1 mps 671 mmHg 69%
    06:00 +23°C° 0.3 mm 1 mps 671 mmHg 68%
    07:00 +25°C° 0.2 mm 1 mps 671 mmHg 62%
    08:00 +26°C° 0.2 mm 1 mps 671 mmHg 57%
    09:00 +28°C° 0.2 mm 1 mps 671 mmHg 51%
    10:00 +29°C° 0.4 mm 1 mps 671 mmHg 47%
    11:00 +30°C° 0.4 mm 1 mps 671 mmHg 43%
    12:00 +32°C° 0.4 mm 1 mps 671 mmHg 39%
    13:00 +32°C° 0.3 mm 1 mps 670 mmHg 38%
    14:00 +33°C° 0.3 mm 1 mps 670 mmHg 37%
    15:00 +34°C° 0.3 mm 2 mps 670 mmHg 36%
    16:00 +32°C° 0.4 mm 2 mps 669 mmHg 42%
    17:00 +30°C° 0.4 mm 3 mps 669 mmHg 48%
    18:00 +29°C° 0.4 mm 4 mps 669 mmHg 53%
    19:00 +27°C° 0.6 mm 3 mps 669 mmHg 57%
    20:00 +25°C° 0.6 mm 3 mps 669 mmHg 60%
    21:00 +24°C° 0.6 mm 2 mps 669 mmHg 63%
    22:00 +23°C° 0.1 mm 2 mps 669 mmHg 65%
    23:00 +23°C° 0.1 mm 1 mps 669 mmHg 66%

    28 June, Friday

    Time Temperature Precipitation Wind Pressure Humidity
    00:00 +23°C° 0.1 mm 1 mps 668 mmHg 68%
    01:00 +22°C° 0.1 mm 1 mps 668 mmHg 68%
    02:00 +22°C° 0.1 mm 1 mps 668 mmHg 69%
    03:00 +22°C° 0.1 mm 1 mps 668 mmHg 70%
    04:00 +22°C° 0.4 mm 1 mps 668 mmHg 70%
    05:00 +22°C° 0.4 mm 1 mps 668 mmHg 70%
    06:00 +22°C° 0.4 mm 1 mps 667 mmHg 70%
    07:00 +24°C° 0.2 mm 1 mps 667 mmHg 65%
    08:00 +25°C° 0.2 mm 1 mps 667 mmHg 60%
    09:00 +27°C° 0.2 mm 1 mps 668 mmHg 55%
    10:00 +28°C° 0.4 mm 1 mps 667 mmHg 51%
    11:00 +29°C° 0.4 mm 1 mps 667 mmHg 47%
    12:00 +31°C° 0.4 mm 1 mps 667 mmHg 43%
    13:00 +31°C° 0.5 mm 2 mps 667 mmHg 42%
    14:00 +31°C° 0.5 mm 2 mps 667 mmHg 41%
    15:00 +33°C° 0.5 mm 3 mps 666 mmHg 41%
    16:00 +29°C° 1.4 mm 4 mps 666 mmHg 51%
    17:00 +26°C° 1.4 mm 5 mps 666 mmHg 62%
    18:00 +21°C° 1.4 mm 6 mps 666 mmHg 73%
    19:00 +21°C° 0.6 mm 4 mps 666 mmHg 74%
    20:00 +21°C° 0.6 mm 3 mps 666 mmHg 75%
    21:00 +21°C° 0.6 mm 1 mps 667 mmHg 76%
    22:00 +21°C° 0.3 mm 1 mps 667 mmHg 78%
    23:00 +21°C° 0.3 mm 1 mps 666 mmHg 79%

    29 June, Saturday

    Time Temperature Precipitation Wind Pressure Humidity
    00:00 +21°C° 0.3 mm 1 mps 666 mmHg 81%
    01:00 +20°C° 0 mm 1 mps 666 mmHg 81%
    02:00 +20°C° 0 mm 1 mps 666 mmHg 80%
    03:00 +20°C° 0 mm 1 mps 666 mmHg 80%
    04:00 +20°C° 0 mm 1 mps 666 mmHg 78%
    05:00 +21°C° 0 mm 1 mps 666 mmHg 76%
    06:00 +21°C° 0 mm 1 mps 666 mmHg 73%
    07:00 +22°C° 0 mm 1 mps 666 mmHg 68%
    08:00 +24°C° 0 mm 1 mps 666 mmHg 63%
    09:00 +25°C° 0 mm 1 mps 666 mmHg 57%
    10:00 +27°C° 0.4 mm 1 mps 666 mmHg 53%
    11:00 +28°C° 0.4 mm 1 mps 666 mmHg 49%
    12:00 +29°C° 0.4 mm 2 mps 666 mmHg 45%
    13:00 +30°C° 0.4 mm 1 mps 666 mmHg 43%
    14:00 +30°C° 0.4 mm 1 mps 665 mmHg 40%
    15:00 +31°C° 0.4 mm 1 mps 665 mmHg 38%
    16:00 +29°C° 1.1 mm 2 mps 665 mmHg 48%
    17:00 +26°C° 1.1 mm 3 mps 664 mmHg 58%
    18:00 +23°C° 1.1 mm 4 mps 664 mmHg 69%
    19:00 +22°C° 1.3 mm 3 mps 664 mmHg 72%
    20:00 +21°C° 1.3 mm 3 mps 665 mmHg 75%
    21:00 +20°C° 1.3 mm 2 mps 665 mmHg 78%
    22:00 +20°C° 0.2 mm 2 mps 666 mmHg 78%
    23:00 +21°C° 0.2 mm 1 mps 666 mmHg 79%

    30 June, Sunday

    Time Temperature Precipitation Wind Pressure Humidity
    00:00 +21°C° 0.2 mm 1 mps 666 mmHg 79%
    01:00 +20°C° 0.1 mm 1 mps 666 mmHg 81%
    02:00 +20°C° 0.1 mm 1 mps 665 mmHg 83%
    03:00 +19°C° 0.1 mm 1 mps 665 mmHg 85%
    04:00 +20°C° 0.1 mm 1 mps 665 mmHg 82%
    05:00 +20°C° 0.1 mm 1 mps 665 mmHg 79%
    06:00 +20°C° 0.1 mm 1 mps 666 mmHg 76%
    07:00 +22°C° 0.2 mm 1 mps 666 mmHg 71%
    08:00 +23°C° 0.2 mm 1 mps 666 mmHg 66%
    09:00 +24°C° 0.2 mm 2 mps 666 mmHg 62%
    10:00 +25°C° 0.3 mm 2 mps 666 mmHg 56%
    11:00 +27°C° 0.3 mm 2 mps 666 mmHg 51%
    12:00 +28°C° 0.3 mm 2 mps 666 mmHg 46%
    13:00 +29°C° 0.2 mm 2 mps 666 mmHg 44%
    14:00 +30°C° 0.2 mm 1 mps 666 mmHg 41%
    15:00 +30°C° 0.2 mm 1 mps 666 mmHg 39%
    16:00 +28°C° 1.1 mm 2 mps 666 mmHg 50%
    17:00 +25°C° 1.1 mm 2 mps 665 mmHg 62%
    18:00 +23°C° 1.1 mm 2 mps 665 mmHg 74%
    19:00 +21°C° 0.5 mm 2 mps 665 mmHg 75%
    20:00 +21°C° 0.5 mm 2 mps 666 mmHg 76%
    21:00 +20°C° 0.5 mm 2 mps 666 mmHg 77%
    22:00 +20°C° 0.1 mm 2 mps 666 mmHg 76%
    23:00 +19°C° 0.1 mm 2 mps 666 mmHg 76%
    Show more